Location: Marcé
(47.5801°N, 0.3280°W)
Time: 05:49:26
(UTC+01:00)

Altair - Pass Details

Date: 13 December 2021
Orbit: 1501 x 1683 km, 47.2° (Epoch: 21 January)

Event Time Altitude Azimuth Distance (km) Brightness Sun altitude
Rises 20:48:15 0° 291° (WNW) 4,705 11.0 -35.7°
Reaches altitude 10° 20:51:43 10° 282° (WNW) 3,698 10.3 -36.2°
Maximum altitude 20:59:30 32° 224° (SW) 2,373 8.6 -37.6°
Enters shadow 21:03:16 24° 187° (S) 2,729 8.7 -38.2°
Drops below altitude 10° 21:07:12 10° 166° (SSE) 3,642 - -38.8°
Sets 21:10:37 0° 157° (SSE) 4,624 - -39.4°
